Weather History for KNRB - November, 2013

Change the Weather History Date:

Saturday, November 9, 2013

  Actual Average Record
Temperature  
Mean Temperature 68 °F -  
Max Temperature 73 °F 71 °F 81 °F (2000)
Min Temperature 64 °F 58 °F 44 °F (2012)
Cooling Degree Days 4    
Growing Degree Days 18 (Base 50)    
Moisture  
Dew Point 61 °F    
Average Humidity 78    
Maximum Humidity 93    
Minimum Humidity 59    
Precipitation  
Precipitation 0.00 in - - ()
Sea Level Pressure  
Sea Level Pressure 30.22 in    
Wind  
Wind Speed 14 mph (NNE)    
Max Wind Speed 18 mph    
Max Gust Speed 21 mph    
Visibility 10 miles    
Events      
Averages and records for this station are not official NWS values.
T = Trace of Precipitation, MM = Missing Value Source: NWS Daily Summary

Daily Weather History Graph

Daily Weather History Graph

Search for Another Location

Airport or City:

Trip Planner

Search our weather history database for the weather conditions in past years. The results will help you decide how hot, cold, wet, or windy it might be!

Date:

Astronomy

Nov. 09, 2013 Rise Set
Actual Time 6:46 AM EST 5:32 PM EST
Civil Twilight 6:21 AM EST 5:57 PM EST
Nautical Twilight 5:52 AM EST 6:25 PM EST
Astronomical Twilight 5:24 AM EST 6:54 PM EST
Moon 12:26 PM EST (11/9) 11:54 PM EST (11/9)
Length of Visible Light 11h 35m
Length of Day
10h 45m
Waxing Crescent, 44% of the Moon is Illuminated
Nov 9
Waxing Crescent
Nov 10
First Quarter
Nov 17
Full
Nov 25
Last Quarter
Dec 2
New

Hourly Weather History & Observations

Time (EST) Temp. Dew Point Humidity Pressure Visibility Wind Dir Wind Speed Gust Speed Precip Events Conditions
12:52 AM - - N/A% 30.22 in 10.0 mi NE 18.4 mph - N/A   Clear
1:52 AM - - N/A% 30.20 in 10.0 mi ENE 17.3 mph - N/A   Clear
2:52 AM - - N/A% 30.19 in 10.0 mi ENE 18.4 mph - N/A   Clear
3:52 AM - - N/A% 30.19 in 10.0 mi ENE 13.8 mph - N/A   Clear
4:52 AM - - N/A% 30.19 in 10.0 mi ENE 15.0 mph - N/A   Clear
5:52 AM - - N/A% 30.20 in 10.0 mi ENE 13.8 mph - N/A   Clear
6:52 AM - - N/A% 30.22 in 10.0 mi NE 12.7 mph - N/A   Clear
7:52 AM - - N/A% 30.24 in 10.0 mi NE 12.7 mph - N/A   Partly Cloudy
8:52 AM - - N/A% 30.25 in 10.0 mi ENE 11.5 mph - N/A   Scattered Clouds
9:52 AM - - N/A% 30.27 in 10.0 mi ENE 10.4 mph - N/A   Clear
10:52 AM - - N/A% 30.27 in 10.0 mi ENE 11.5 mph - N/A   Clear
11:06 AM 73.0 °F 57.9 °F 59% 30.26 in 10.0 mi NE 11.5 mph - N/A   Scattered Clouds
11:52 AM 73.0 °F 57.9 °F 59% 30.24 in 10.0 mi NNE 13.8 mph - N/A   Scattered Clouds
12:52 PM 73.0 °F 60.1 °F 64% 30.22 in 10.0 mi NNE 11.5 mph - N/A   Scattered Clouds
1:52 PM 73.0 °F 60.1 °F 64% 30.20 in 10.0 mi NNE 15.0 mph - N/A   Scattered Clouds
2:52 PM 73.0 °F 60.1 °F 64% 30.19 in 10.0 mi NNE 13.8 mph - N/A   Scattered Clouds
3:52 PM 71.1 °F 60.1 °F 68% 30.20 in 10.0 mi North 13.8 mph - N/A   Scattered Clouds
4:52 PM 69.1 °F 60.1 °F 73% 30.20 in 10.0 mi North 12.7 mph - N/A   Mostly Cloudy
5:52 PM 66.9 °F 60.1 °F 79% 30.21 in 10.0 mi North 12.7 mph - N/A   Mostly Cloudy
6:52 PM 66.9 °F 60.1 °F 79% 30.22 in 10.0 mi North 15.0 mph - N/A   Scattered Clouds
7:52 PM 64.9 °F 62.1 °F 90% 30.23 in 10.0 mi North 12.7 mph 20.7 mph N/A   Mostly Cloudy
8:52 PM 64.9 °F 62.1 °F 90% 30.23 in 10.0 mi NNE 11.5 mph - N/A   Mostly Cloudy
9:52 PM 64.9 °F 62.1 °F 90% 30.22 in 10.0 mi North 9.2 mph - N/A   Mostly Cloudy
10:52 PM 64.9 °F 63.0 °F 93% 30.20 in 10.0 mi North 8.1 mph - N/A   Mostly Cloudy
11:07 PM 64.9 °F 63.0 °F 93% 30.20 in 10.0 mi North 5.8 mph - N/A   Overcast
11:35 PM 64.9 °F 63.0 °F 93% 30.19 in 10.0 mi NNW 5.8 mph - N/A   Overcast
11:52 PM 64.9 °F 63.0 °F 93% 30.18 in 10.0 mi North 6.9 mph - N/A   Mostly Cloudy